Data Viewer
| City | State | Eastern Time | Source | Temp | DewPt | RH | BP | 5 Min Precip | Wind Speed | Wind Dir | 5 Min Wind Max | 5 Min Wind Max Dir |
|---|---|---|---|---|---|---|---|---|---|---|---|---|
| Old Bridge | NJ | 2026-05-07 02:00 | NCAWOS | 54 | 94 | 29.84 | 8 | NW | ||||
| Old Bridge | NJ | 2026-05-07 15:09 | NCAWOS | 30 | 28 | 29.77 | 3 | NNE | ||||
| Old Bridge | NJ | 2026-05-07 17:14 | NCAWOS | 30 | 26 | 29.76 | 7 | NW | ||||
| Old Bridge | NJ | 2026-05-07 17:09 | NCAWOS | 30 | 26 | 29.76 | 7 | NW | ||||
| Old Bridge | NJ | 2026-05-07 17:04 | NCAWOS | 30 | 26 | 29.76 | 6 | NW | ||||
| Old Bridge | NJ | 2026-05-07 16:25 | NCAWOS | 30 | 28 | 29.76 | 5 | N | ||||
| Old Bridge | NJ | 2026-05-07 16:14 | NCAWOS | 30 | 28 | 29.76 | 5 | NNW | ||||
| Old Bridge | NJ | 2026-05-07 16:09 | NCAWOS | 30 | 26 | 29.76 | 5 | NNE | ||||
| Old Bridge | NJ | 2026-05-07 16:04 | NCAWOS | 30 | 26 | 29.76 | 5 | NW | ||||
| Old Bridge | NJ | 2026-05-07 15:14 | NCAWOS | 30 | 26 | 29.77 | 8 | NW | ||||
| Old Bridge | NJ | 2026-05-07 15:04 | NCAWOS | 30 | 26 | 29.77 | 7 | ENE | ||||
| Old Bridge | NJ | 2026-05-07 18:04 | NCAWOS | 30 | 28 | 29.76 | 3 | S | ||||
| Old Bridge | NJ | 2026-05-07 14:25 | NCAWOS | 32 | 28 | 29.79 | 6 | NNW | ||||
| Old Bridge | NJ | 2026-05-07 14:14 | NCAWOS | 30 | 28 | 29.79 | 3 | ENE | ||||
| Old Bridge | NJ | 2026-05-07 14:04 | NCAWOS | 30 | 28 | 29.79 | 9 | NW | ||||
| Old Bridge | NJ | 2026-05-07 13:13 | NCAWOS | 30 | 28 | 29.82 | 9 | N | ||||
| Old Bridge | NJ | 2026-05-07 13:10 | NCAWOS | 32 | 30 | 29.82 | 7 | NE | ||||
| Old Bridge | NJ | 2026-05-07 13:04 | NCAWOS | 32 | 30 | 29.82 | 3 | N | ||||
| Old Bridge | NJ | 2026-05-07 12:24 | NCAWOS | 30 | 29 | 29.83 | 7 | NNW | ||||
| Old Bridge | NJ | 2026-05-07 12:19 | NCAWOS | 32 | 34 | 29.84 | 5 | N | ||||
| Old Bridge | NJ | 2026-05-07 17:24 | NCAWOS | 30 | 26 | 29.76 | 6 | NW | ||||
| Old Bridge | NJ | 2026-05-07 18:08 | NCAWOS | 30 | 28 | 29.76 | 3 | N | ||||
| Old Bridge | NJ | 2026-05-07 12:10 | NCAWOS | 34 | 34 | 29.84 | 8 | NNE | ||||
| Old Bridge | NJ | 2026-05-07 21:14 | NCAWOS | 43 | 62 | 29.80 | 3 | SSW | ||||
| Old Bridge | NJ | 2026-05-08 01:14 | NCAWOS | 46 | 93 | 29.83 | 0 | N | ||||
| Old Bridge | NJ | 2026-05-08 01:10 | NCAWOS | 46 | 93 | 29.83 | 0 | N | ||||
| Old Bridge | NJ | 2026-05-08 01:04 | NCAWOS | 46 | 93 | 29.83 | 0 | N | ||||
| Old Bridge | NJ | 2026-05-08 00:30 | NCAWOS | 45 | 87 | 29.82 | 0 | N | ||||
| Old Bridge | NJ | 2026-05-08 00:09 | NCAWOS | 45 | 87 | 29.82 | 0 | N | ||||
| Old Bridge | NJ | 2026-05-08 00:04 | NCAWOS | 45 | 87 | 29.82 | 0 | N | ||||
| Old Bridge | NJ | 2026-05-07 21:24 | NCAWOS | 43 | 62 | 29.80 | 0 | N | ||||
| Old Bridge | NJ | 2026-05-07 21:19 | NCAWOS | 43 | 62 | 29.80 | 3 | SSW | ||||
| Old Bridge | NJ | 2026-05-07 21:09 | NCAWOS | 43 | 62 | 29.80 | 3 | SSW | ||||
| Old Bridge | NJ | 2026-05-07 18:14 | NCAWOS | 30 | 28 | 29.76 | 5 | NW | ||||
| Old Bridge | NJ | 2026-05-07 21:04 | NCAWOS | 43 | 62 | 29.80 | 5 | SSW | ||||
| Old Bridge | NJ | 2026-05-07 21:00 | NCAWOS | 43 | 62 | 29.80 | 0 | N | ||||
| Old Bridge | NJ | 2026-05-07 20:14 | NCAWOS | 39 | 51 | 29.78 | 6 | SSW | ||||
| Old Bridge | NJ | 2026-05-07 20:04 | NCAWOS | 37 | 45 | 29.78 | 0 | N | ||||
| Old Bridge | NJ | 2026-05-07 20:00 | NCAWOS | 35 | 41 | 29.78 | 3 | SSW | ||||
| Old Bridge | NJ | 2026-05-07 19:24 | NCAWOS | 30 | 29 | 29.76 | 0 | N | ||||
| Old Bridge | NJ | 2026-05-07 19:04 | NCAWOS | 30 | 28 | 29.76 | 0 | N | ||||
| Old Bridge | NJ | 2026-05-07 18:23 | NCAWOS | 30 | 28 | 29.76 | 3 | WNW | ||||
| Old Bridge | NJ | 2026-05-07 18:16 | NCAWOS | 30 | 28 | 29.76 | 5 | NW | ||||
| Old Bridge | NJ | 2026-05-07 12:14 | NCAWOS | 32 | 34 | 29.84 | 9 | NNE | ||||
| Old Bridge | NJ | 2026-05-07 12:04 | NCAWOS | 34 | 36 | 29.84 | 6 | NNE | ||||
| Old Bridge | NJ | 2026-05-07 02:04 | NCAWOS | 54 | 94 | 29.82 | 6 | N | ||||
| Old Bridge | NJ | 2026-05-07 04:04 | NCAWOS | 50 | 94 | 29.84 | 5 | NNW | ||||
| Old Bridge | NJ | 2026-05-07 06:04 | NCAWOS | 52 | 100 | 29.84 | 3 | NW | ||||
| Old Bridge | NJ | 2026-05-07 05:24 | NCAWOS | 52 | 100 | 29.83 | 3 | NW | ||||
| Old Bridge | NJ | 2026-05-07 05:14 | NCAWOS | 52 | 100 | 29.83 | 3 | NW | ||||
| Old Bridge | NJ | 2026-05-07 05:09 | NCAWOS | 52 | 100 | 29.83 | 5 | NNW | ||||
| Old Bridge | NJ | 2026-05-07 05:04 | NCAWOS | 52 | 100 | 29.82 | 5 | NNW | ||||
| Old Bridge | NJ | 2026-05-07 04:24 | NCAWOS | 50 | 94 | 29.83 | 3 | N | ||||
| Old Bridge | NJ | 2026-05-07 04:14 | NCAWOS | 50 | 94 | 29.83 | 6 | N | ||||
| Old Bridge | NJ | 2026-05-07 04:09 | NCAWOS | 50 | 94 | 29.83 | 6 | NNW | ||||
| Old Bridge | NJ | 2026-05-07 03:29 | NCAWOS | 52 | 100 | 29.83 | 6 | NNW | ||||
| Old Bridge | NJ | 2026-05-07 06:19 | NCAWOS | 52 | 100 | 29.84 | 0 | N | ||||
| Old Bridge | NJ | 2026-05-07 03:24 | NCAWOS | 52 | 100 | 29.82 | 6 | N | ||||
| Old Bridge | NJ | 2026-05-07 03:19 | NCAWOS | 52 | 100 | 29.82 | 8 | N | ||||
| Old Bridge | NJ | 2026-05-07 03:14 | NCAWOS | 52 | 100 | 29.83 | 5 | ENE | ||||
| Old Bridge | NJ | 2026-05-07 03:09 | NCAWOS | 54 | 100 | 29.82 | 7 | NNW | ||||
| Old Bridge | NJ | 2026-05-07 03:04 | NCAWOS | 54 | 100 | 29.83 | 6 | NNW | ||||
| Old Bridge | NJ | 2026-05-07 02:24 | NCAWOS | 54 | 100 | 29.83 | 0 | N | ||||
| Old Bridge | NJ | 2026-05-07 02:20 | NCAWOS | 54 | 100 | 29.82 | 5 | N | ||||
| Old Bridge | NJ | 2026-05-07 02:14 | NCAWOS | 54 | 100 | 29.81 | 5 | N | ||||
| Old Bridge | NJ | 2026-05-07 02:09 | NCAWOS | 54 | 94 | 29.80 | 5 | NNE | ||||
| Old Bridge | NJ | 2026-05-07 06:14 | NCAWOS | 52 | 100 | 29.84 | 0 | N | ||||
| Old Bridge | NJ | 2026-05-07 06:28 | NCAWOS | 52 | 100 | 29.84 | 3 | NW | ||||
| Old Bridge | NJ | 2026-05-07 11:24 | NCAWOS | 35 | 39 | 29.86 | 6 | NW | ||||
| Old Bridge | NJ | 2026-05-07 09:14 | NCAWOS | 48 | 82 | 29.88 | 5 | NNW | ||||
| Old Bridge | NJ | 2026-05-07 11:19 | NCAWOS | 35 | 41 | 29.86 | 5 | NNW | ||||
| Old Bridge | NJ | 2026-05-07 11:15 | NCAWOS | 35 | 39 | 29.86 | 7 | N | ||||
| Old Bridge | NJ | 2026-05-07 11:09 | NCAWOS | 35 | 39 | 29.86 | 6 | N | ||||
| Old Bridge | NJ | 2026-05-07 11:04 | NCAWOS | 37 | 42 | 29.86 | 6 | NNE | ||||
| Old Bridge | NJ | 2026-05-07 10:14 | NCAWOS | 41 | 55 | 29.88 | 6 | NNW | ||||
| Old Bridge | NJ | 2026-05-07 10:04 | NCAWOS | 43 | 59 | 29.88 | 7 | NW | ||||
| Old Bridge | NJ | 2026-05-07 09:24 | NCAWOS | 46 | 72 | 29.88 | 5 | NNW | ||||
| Old Bridge | NJ | 2026-05-07 09:19 | NCAWOS | 46 | 72 | 29.88 | 6 | N | ||||
| Old Bridge | NJ | 2026-05-07 09:09 | NCAWOS | 48 | 82 | 29.87 | 5 | N | ||||
| Old Bridge | NJ | 2026-05-07 07:04 | NCAWOS | 52 | 100 | 29.86 | 0 | N | ||||
| Old Bridge | NJ | 2026-05-07 09:04 | NCAWOS | 48 | 82 | 29.87 | 3 | NNW | ||||
| Old Bridge | NJ | 2026-05-07 08:24 | NCAWOS | 50 | 94 | 29.88 | 3 | NNW | ||||
| Old Bridge | NJ | 2026-05-07 08:19 | NCAWOS | 50 | 94 | 29.88 | 3 | N | ||||
| Old Bridge | NJ | 2026-05-07 08:14 | NCAWOS | 50 | 94 | 29.88 | 3 | N | ||||
| Old Bridge | NJ | 2026-05-07 08:09 | NCAWOS | 50 | 94 | 29.88 | 3 | NNW | ||||
| Old Bridge | NJ | 2026-05-07 08:04 | NCAWOS | 50 | 94 | 29.88 | 5 | NW | ||||
| Old Bridge | NJ | 2026-05-07 07:24 | NCAWOS | 52 | 100 | 29.86 | 3 | NW | ||||
| Old Bridge | NJ | 2026-05-07 07:14 | NCAWOS | 52 | 100 | 29.86 | 3 | NW | ||||
| Old Bridge | NJ | 2026-05-07 07:09 | NCAWOS | 52 | 100 | 29.85 | 3 | NNW | ||||
| Old Bridge | NJ | 2026-05-08 01:24 | NCAWOS | 46 | 93 | 29.82 | 0 | N |
data collection created in 0.014578104019165 (queried in 0.003605) rendered in: 0.00013017654418945

